FW7092 Weather Reports


time (UTC)temp
C
wind
direction
speed
KPH
gust
KPH
rain 1hr
cm
rain 24hr
cm
rain mn
cm
humidity
%
barometer
mb
20260508185144 15 204 17.7 24.1 0.00 0.00 0.00 71 1013.1
20260508184641 15 250 14.5 22.5 0.00 0.00 0.00 67 1013.1
20260508184138 15 211 14.5 24.1 0.00 0.00 0.00 68 1012.9
20260508183634 15 230 12.9 22.5 0.00 0.00 0.00 65 1013.2
20260508183130 15 218 12.9 22.5 0.00 0.00 0.00 68 1013.1
20260508182627 15 236 14.5 24.1 0.00 0.00 0.00 66 1013.2
20260508182124 15 229 14.5 17.7 0.00 0.00 0.00 68 1013.4
20260508181619 15 215 11.3 12.9 0.00 0.00 0.00 70 1013.3
20260508181117 14 240 9.7 17.7 0.00 0.00 0.00 69 1013.6
20260508180613 14 239 12.9 20.9 0.00 0.00 0.00 71 1013.5
20260508180110 14 225 9.7 16.1 0.00 0.00 0.00 71 1013.3
20260508175606 13 222 9.7 14.5 0.00 0.00 0.00 75 1013.5
20260508175104 13 243 12.9 16.1 0.00 0.00 0.00 72 1013.5
20260508174601 13 215 14.5 17.7 0.00 0.00 0.00 73 1013.6
20260508174058 14 244 12.9 16.1 0.00 0.00 0.00 74 1014.1
20260508173555 14 248 9.7 12.9 0.00 0.00 0.00 72 1013.6
20260508173050 14 203 14.5 17.7 0.00 0.00 0.00 71 1013.7
20260508172548 14 211 17.7 17.7 0.00 0.00 0.00 73 1013.9
20260508172044 14 212 12.9 16.1 0.00 0.00 0.00 74 1013.8
20260508171541 14 197 20.9 22.5 0.00 0.00 0.00 73 1014.0
20260508171037 15 234 14.5 24.1 0.00 0.00 0.00 75 1014.1
20260508170535 15 205 11.3 17.7 0.00 0.00 0.00 75 1014.0
20260508170032 14 224 12.9 16.1 0.00 0.00 0.00 74 1014.1
20260508165529 14 239 9.7 16.1 0.00 0.00 0.00 72 1014.3
20260508165026 14 245 12.9 16.1 0.00 0.00 0.00 73 1014.5
20260508164522 14 237 11.3 12.9 0.00 0.00 0.00 72 1014.3
20260508164019 14 259 9.7 16.1 0.00 0.00 0.00 74 1014.4
20260508163517 13 213 12.9 17.7 0.00 0.00 0.00 75 1014.5
20260508163013 14 211 9.7 16.1 0.00 0.00 0.00 77 1014.8
20260508162510 13 235 6.4 14.5 0.00 0.00 0.00 77 1014.9
20260508162008 13 243 11.3 14.5 0.00 0.00 0.00 77 1014.8
20260508161504 13 215 16.1 17.7 0.00 0.00 0.00 77 1014.9
20260508161001 12 207 14.5 16.1 0.00 0.00 0.00 79 1014.9
20260508160500 12 246 8.0 17.7 0.00 0.00 0.00 78 1015.0
20260508155956 12 240 11.3 14.5 0.00 0.00 0.00 78 1015.2
20260508155453 12 232 11.3 17.7 0.00 0.00 0.00 79 1015.0
20260508154950 12 229 6.4 12.9 0.00 0.00 0.00 79 1015.2
20260508154448 12 230 9.7 12.9 0.00 0.00 0.00 79 1015.0
20260508153944 12 200 12.9 14.5 0.00 0.00 0.00 79 1015.2
20260508153441 12 240 9.7 14.5 0.00 0.00 0.00 77 1014.9
20260508152937 12 237 9.7 14.5 0.00 0.00 0.00 78 1015.0
20260508152434 12 242 11.3 12.9 0.00 0.00 0.00 79 1014.9
20260508151930 12 244 8.0 14.5 0.00 0.00 0.00 78 1015.0
20260508151427 12 239 9.7 14.5 0.00 0.00 0.00 76 1015.1
20260508150923 12 239 11.3 12.9 0.00 0.00 0.00 77 1015.0
20260508150420 12 233 8.0 16.1 0.00 0.00 0.00 78 1014.9
20260508145916 12 220 11.3 14.5 0.00 0.00 0.00 78 1015.1
20260508145413 12 246 11.3 14.5 0.00 0.00 0.00 78 1015.1
20260508144910 12 238 9.7 12.9 0.00 0.00 0.00 78 1015.0
20260508144408 12 269 8.0 8.0 0.00 0.00 0.00 76 1015.2
20260508143905 12 246 6.4 9.7 0.00 0.00 0.00 77 1015.0
20260508143402 12 243 1.6 4.8 0.00 0.00 0.00 79 1015.2
20260508142858 11 249 4.8 9.7 0.00 0.00 0.00 78 1014.9
20260508142355 11 248 8.0 11.3 0.00 0.00 0.00 79 1015.1
20260508141852 11 254 6.4 9.7 0.00 0.00 0.00 80 1014.8
20260508141348 11 250 9.7 11.3 0.00 0.00 0.00 79 1015.0
20260508140847 11 245 4.8 11.3 0.00 0.00 0.00 79 1014.9
20260508140343 11 242 4.8 9.7 0.00 0.00 0.00 80 1015.1
20260508135838 11 266 8.0 11.3 0.00 0.00 0.00 79 1015.0
20260508135335 11 251 9.7 11.3 0.00 0.00 0.00 79 1014.8
20260508134831 11 229 4.8 9.7 0.00 0.00 0.00 80 1015.0
20260508134328 11 237 3.2 8.0 0.00 0.00 0.00 81 1015.0
20260508133825 11 224 11.3 12.9 0.00 0.00 0.00 80 1015.1
20260508133323 11 239 11.3 11.3 0.00 0.00 0.00 79 1014.9
20260508132820 11 251 9.7 14.5 0.00 0.00 0.00 78 1015.1
20260508132318 11 260 9.7 11.3 0.00 0.00 0.00 80 1015.0
20260508131814 11 243 9.7 12.9 0.00 0.00 0.00 81 1015.2
20260508131309 10 270 9.7 14.5 0.00 0.00 0.00 80 1014.9
20260508130806 10 286 8.0 11.3 0.00 0.00 0.00 81 1015.1
20260508130304 10 244 8.0 12.9 0.00 0.00 0.00 81 1015.1
20260508125759 10 255 11.3 12.9 0.00 0.00 0.00 82 1015.2
20260508125256 10 259 9.7 12.9 0.00 0.00 0.00 82 1015.2
20260508124754 10 244 8.0 9.7 0.00 0.00 0.00 82 1015.2
20260508124251 10 241 6.4 12.9 0.00 0.00 0.00 82 1015.5
20260508123749 10 238 11.3 14.5 0.00 0.00 0.00 83 1015.5
20260508123247 10 228 8.0 11.3 0.00 0.00 0.00 84 1015.4
20260508122743 9 255 9.7 12.9 0.00 0.00 0.00 85 1015.6
20260508122240 9 250 9.7 12.9 0.00 0.00 0.00 84 1015.5
20260508121737 8 238 8.0 9.7 0.00 0.00 0.00 86 1015.2
20260508121235 8 224 6.4 8.0 0.00 0.00 0.00 87 1015.2
20260508120732 8 222 8.0 12.9 0.00 0.00 0.00 86 1015.5
20260508120231 8 239 8.0 14.5 0.00 0.00 0.00 85 1015.1
20260508115728 8 215 8.0 11.3 0.00 0.00 0.00 87 1015.0
20260508115225 8 238 9.7 12.9 0.00 0.00 0.00 88 1015.0
20260508114721 8 221 8.0 9.7 0.00 0.00 0.00 90 1014.8
20260508114218 7 231 4.8 4.8 0.00 0.00 0.00 91 1014.5
20260508113715 7 220 3.2 8.0 0.00 0.00 0.00 91 1014.7
20260508113214 7 228 3.2 4.8 0.00 0.00 0.00 91 1014.6
20260508112709 7 230 4.8 4.8 0.00 0.00 0.00 92 1014.6
20260508112206 7 234 3.2 4.8 0.00 0.00 0.00 92 1014.4
20260508111703 7 216 1.6 4.8 0.00 0.00 0.00 93 1014.4
20260508111201 6 235 4.8 4.8 0.00 0.00 0.00 93 1014.6
20260508110658 6 225 4.8 8.0 0.00 0.00 0.00 93 1014.3
20260508110154 6 204 6.4 8.0 0.00 0.00 0.00 93 1014.5
20260508105649 6 224 3.2 3.2 0.00 0.00 0.00 93 1014.3
20260508105146 6 220 3.2 3.2 0.00 0.00 0.00 93 1014.2
20260508104644 6 225 1.6 3.2 0.00 0.00 0.00 93 1014.1
20260508104140 6 223 3.2 3.2 0.00 0.00 0.00 93 1014.3
20260508103637 6 221 1.6 1.6 0.00 0.00 0.00 93 1014.4
20260508103135 6 220 3.2 3.2 0.00 0.00 0.00 93 1014.2
20260508102632 6 216 4.8 4.8 0.00 0.00 0.00 93 1014.1
20260508102130 6 214 3.2 3.2 0.00 0.00 0.00 92 1014.1
20260508101621 6 222 4.8 4.8 0.00 0.00 0.00 93 1014.2
20260508101118 6 216 4.8 4.8 0.00 0.00 0.00 92 1014.2
20260508100615 6 212 4.8 4.8 0.00 0.00 0.00 92 1014.2
20260508100114 6 217 4.8 4.8 0.00 0.00 0.00 91 1014.1
20260508095610 7 216 3.2 4.8 0.00 0.00 0.00 91 1014.0
20260508095107 7 206 4.8 4.8 0.00 0.00 0.00 91 1014.3
20260508094604 7 221 4.8 8.0 0.00 0.00 0.00 91 1014.2
20260508094101 7 213 4.8 8.0 0.00 0.00 0.00 91 1014.1
20260508093558 7 210 8.0 9.7 0.00 0.00 0.00 90 1014.3
20260508093056 7 217 8.0 9.7 0.00 0.00 0.00 91 1014.0
20260508092553 7 213 8.0 11.3 0.00 0.00 0.00 91 1014.4
20260508092052 7 217 8.0 9.7 0.00 0.00 0.00 91 1014.3
20260508091549 7 217 6.4 8.0 0.00 0.00 0.00 92 1014.2
20260508091045 6 213 4.8 8.0 0.00 0.00 0.00 92 1014.2
20260508090543 7 215 4.8 4.8 0.00 0.00 0.00 91 1014.2
20260508090040 6 213 8.0 9.7 0.00 0.00 0.00 92 1014.3
20260508085536 6 220 4.8 8.0 0.00 0.00 0.00 92 1014.3
20260508085034 6 227 3.2 3.2 0.00 0.00 0.00 92 1014.4
20260508084530 6 218 3.2 4.8 0.00 0.00 0.00 92 1014.3
20260508084028 6 232 4.8 4.8 0.00 0.00 0.00 92 1014.3
20260508083525 6 216 4.8 4.8 0.00 0.00 0.00 92 1014.3
20260508083021 6 233 3.2 4.8 0.00 0.00 0.00 92 1014.2
20260508082517 6 213 6.4 8.0 0.00 0.00 0.00 92 1014.4
20260508082015 6 229 4.8 4.8 0.00 0.00 0.00 92 1014.4
20260508081512 7 209 6.4 8.0 0.00 0.00 0.00 92 1014.3
20260508081007 7 222 4.8 8.0 0.00 0.00 0.00 91 1014.4
20260508080506 7 221 8.0 9.7 0.00 0.00 0.00 92 1014.5
20260508080003 7 230 4.8 4.8 0.00 0.00 0.00 92 1014.6
20260508075500 7 232 4.8 4.8 0.00 0.00 0.00 93 1014.5
20260508074957 7 224 3.2 4.8 0.00 0.00 0.00 93 1014.8
20260508074455 6 221 4.8 8.0 0.00 0.00 0.00 93 1014.5
20260508073951 6 223 4.8 4.8 0.00 0.00 0.00 93 1014.4
20260508073449 6 230 3.2 3.2 0.00 0.00 0.00 93 1014.5
20260508072946 6 222 1.6 3.2 0.00 0.00 0.00 93 1014.9
20260508072442 6 215 1.6 3.2 0.00 0.00 0.00 93 1014.6
20260508071939 6 220 3.2 4.8 0.00 0.00 0.00 92 1014.6
20260508071437 6 229 3.2 4.8 0.00 0.00 0.00 92 1014.6
20260508070935 6 225 3.2 4.8 0.00 0.00 0.00 91 1014.6
20260508070432 6 216 1.6 3.2 0.00 0.00 0.00 91 1014.5
20260508065930 6 215 3.2 3.2 0.00 0.00 0.00 91 1014.8
20260508065428 6 217 3.2 3.2 0.00 0.00 0.00 91 1014.6
20260508064925 6 213 3.2 3.2 0.00 0.00 0.00 91 1014.9
20260508064423 6 213 3.2 3.2 0.00 0.00 0.00 91 1014.7
20260508063920 6 217 3.2 4.8 0.00 0.00 0.00 91 1014.8
20260508063418 6 210 4.8 8.0 0.00 0.00 0.00 91 1014.8
20260508062915 6 211 4.8 4.8 0.00 0.00 0.00 90 1014.9
20260508062413 6 213 4.8 4.8 0.00 0.00 0.00 90 1014.9
20260508061910 6 212 4.8 9.7 0.00 0.00 0.00 89 1014.9
20260508061407 6 214 4.8 8.0 0.00 0.00 0.00 89 1014.9
20260508060903 6 215 4.8 4.8 0.00 0.00 0.00 88 1014.9
20260508060401 7 205 6.4 9.7 0.00 0.00 0.00 88 1015.0
20260508055901 7 222 8.0 11.3 0.00 0.00 0.00 87 1015.1
20260508055359 7 231 8.0 11.3 0.00 0.00 0.00 86 1015.0
20260508054855 7 219 8.0 12.9 0.00 0.00 0.00 85 1015.0
20260508054353 7 215 8.0 12.9 0.00 0.00 0.00 84 1015.2
20260508053849 7 233 9.7 14.5 0.00 0.00 0.00 83 1015.1
20260508053347 7 214 9.7 12.9 0.00 0.00 0.00 85 1015.4
20260508052844 7 232 8.0 11.3 0.00 0.00 0.00 85 1015.4
20260508052342 7 214 9.7 12.9 0.00 0.00 0.00 84 1015.2
20260508051837 8 220 8.0 17.7 0.00 0.00 0.00 83 1015.2
20260508051333 8 247 8.0 14.5 0.00 0.00 0.00 83 1015.2
20260508050829 8 212 8.0 12.9 0.00 0.00 0.00 82 1015.4
20260508050327 8 240 8.0 12.9 0.00 0.00 0.00 81 1015.4
20260508045822 8 218 11.3 12.9 0.00 0.00 0.00 81 1015.2
20260508045320 8 226 11.3 14.5 0.00 0.00 0.00 80 1015.2
20260508044818 8 234 11.3 14.5 0.00 0.00 0.00 79 1015.4
20260508044314 8 205 16.1 16.1 0.00 0.00 0.00 78 1015.1
20260508043810 8 207 11.3 16.1 0.00 0.00 0.00 76 1015.0
20260508043308 8 204 14.5 16.1 0.00 0.00 0.00 75 1014.9
20260508042804 8 215 9.7 12.9 0.00 0.00 0.00 75 1015.1
20260508042306 8 232 9.7 12.9 0.00 0.00 0.00 78 1015.0
20260508041758 8 216 6.4 8.0 0.00 0.00 0.00 79 1015.1
20260508041255 8 207 6.4 8.0 0.00 0.00 0.00 80 1015.4
20260508040751 8 214 6.4 8.0 0.00 0.00 0.00 80 1015.2
20260508040248 8 211 4.8 8.0 0.00 0.00 0.00 81 1015.4
20260508035746 7 215 4.8 8.0 0.00 0.00 0.00 82 1015.4
20260508035243 7 211 3.2 4.8 0.00 0.00 0.00 83 1015.4
20260508034740 7 211 3.2 3.2 0.00 0.00 0.00 83 1015.4
20260508034237 7 213 3.2 3.2 0.00 0.00 0.00 83 1015.4
20260508033734 8 210 3.2 3.2 0.00 0.00 0.00 81 1015.2
20260508033232 8 215 4.8 4.8 0.00 0.00 0.00 81 1015.4
20260508032730 7 212 4.8 4.8 0.00 0.00 0.00 81 1015.5
20260508032227 8 215 4.8 4.8 0.00 0.00 0.00 81 1015.4
20260508031723 8 213 3.2 4.8 0.00 0.00 0.00 80 1015.5
20260508031219 8 212 4.8 4.8 0.00 0.00 0.00 80 1015.6
20260508030716 8 212 4.8 4.8 0.00 0.00 0.00 80 1015.6
20260508030214 8 209 4.8 4.8 0.00 0.00 0.00 80 1015.6
20260508025710 8 222 4.8 4.8 0.00 0.00 0.00 78 1015.9
20260508025207 8 216 4.8 8.0 0.00 0.00 0.00 77 1015.8
20260508024703 8 213 4.8 8.0 0.00 0.00 0.00 77 1015.7
20260508024200 8 208 6.4 8.0 0.00 0.00 0.00 77 1015.9
20260508023656 8 210 6.4 8.0 0.00 0.00 0.00 76 1015.9
20260508023154 8 212 4.8 4.8 0.00 0.00 0.00 77 1015.7
20260508022649 8 211 3.2 3.2 0.00 0.00 0.00 76 1015.8
20260508022147 8 211 3.2 3.2 0.00 0.00 0.00 75 1015.9
20260508021643 8 217 6.4 8.0 0.00 0.00 0.00 73 1015.8
20260508021138 8 211 4.8 4.8 0.00 0.00 0.00 74 1015.9
20260508020637 8 216 6.4 8.0 0.00 0.00 0.00 73 1015.9
20260508020134 9 211 6.4 9.7 0.00 0.00 0.00 72 1015.9
20260508015631 9 224 6.4 9.7 0.00 0.00 0.00 71 1016.0
20260508015128 9 231 6.4 9.7 0.00 0.00 0.00 70 1015.8
20260508014624 9 236 6.4 9.7 0.00 0.00 0.00 70 1016.0
20260508014121 9 236 8.0 12.9 0.00 0.00 0.00 69 1015.8
20260508013617 10 224 9.7 12.9 0.00 0.00 0.00 68 1015.8
20260508013114 10 236 8.0 14.5 0.00 0.00 0.00 67 1015.6
20260508012611 10 223 9.7 12.9 0.00 0.00 0.00 66 1015.6
20260508012108 10 241 16.1 17.7 0.00 0.00 0.00 63 1015.6
20260508011607 10 241 16.1 17.7 0.00 0.00 0.00 63 1015.7
20260508011104 10 205 16.1 20.9 0.00 0.00 0.00 63 1015.6
20260508010600 10 213 16.1 20.9 0.00 0.00 0.00 63 1015.6
20260508010058 10 240 20.9 24.1 0.00 0.00 0.00 61 1015.6
20260508005555 10 242 14.5 20.9 0.00 0.00 0.00 60 1015.6
20260508005051 10 232 19.3 22.5 0.00 0.00 0.00 60 1015.5
20260508004547 10 246 19.3 27.4 0.00 0.00 0.00 59 1015.2
20260508004044 11 226 17.7 25.7 0.00 0.00 0.00 57 1015.2
20260508003540 11 231 17.7 25.7 0.00 0.00 0.00 57 1015.2
20260508003038 11 224 17.7 33.8 0.00 0.00 0.00 55 1015.0
20260508002534 11 220 16.1 22.5 0.00 0.00 0.00 53 1015.1
20260508002032 11 231 11.3 24.1 0.00 0.00 0.00 53 1014.9
20260508001527 12 230 14.5 20.9 0.00 0.00 0.00 52 1014.9
20260508001024 12 242 17.7 24.1 0.00 0.00 0.00 49 1015.0
20260508000520 12 235 11.3 14.5 0.00 0.00 0.00 47 1014.9
20260508000017 12 231 12.9 16.1 0.00 0.00 0.00 46 1014.7
20260507235514 12 245 8.0 9.7 0.00 0.00 0.00 48 1014.8
20260507235011 12 234 11.3 22.5 0.00 0.00 0.00 45 1014.8
20260507234507 12 245 14.5 17.7 0.00 0.00 0.00 46 1014.7
20260507234004 12 246 8.0 14.5 0.00 0.00 0.00 46 1014.8
20260507233500 12 250 11.3 12.9 0.00 0.00 0.00 46 1014.8
20260507233000 12 243 9.7 14.5 0.00 0.00 0.00 47 1014.5
20260507232455 12 250 11.3 17.7 0.00 0.00 0.00 46 1014.7
20260507231953 12 246 14.5 17.7 0.00 0.00 0.00 46 1014.6
20260507231449 13 239 12.9 16.1 0.00 0.00 0.00 42 1014.7
20260507230946 13 256 16.1 20.9 0.00 0.00 0.00 42 1014.6
20260507230443 13 258 8.0 12.9 0.00 0.00 0.00 45 1014.7
20260507225938 14 248 8.0 9.7 0.00 0.00 0.00 40 1014.6
20260507225434 14 260 8.0 16.1 0.00 0.00 0.00 41 1014.5
20260507224931 13 262 8.0 11.3 0.00 0.00 0.00 42 1014.8
20260507224426 13 268 6.4 12.9 0.00 0.00 0.00 42 1014.7
20260507223923 13 243 8.0 14.5 0.00 0.00 0.00 42 1014.7
20260507223414 13 271 4.8 11.3 0.00 0.00 0.00 44 1014.8
20260507222911 12 252 8.0 12.9 0.00 0.00 0.00 45 1014.9
20260507222408 13 257 12.9 20.9 0.00 0.00 0.00 44 1014.9
20260507221905 14 243 4.8 9.7 0.00 0.00 0.00 43 1014.8
20260507221401 13 241 8.0 14.5 0.00 0.00 0.00 42 1014.8
20260507220857 13 252 9.7 16.1 0.00 0.00 0.00 43 1014.8
20260507220356 13 260 8.0 12.9 0.00 0.00 0.00 44 1014.9
20260507215852 14 245 11.3 16.1 0.00 0.00 0.00 46 1014.8
20260507215349 14 233 6.4 16.1 0.00 0.00 0.00 45 1014.8
20260507214846 13 270 16.1 22.5 0.00 0.00 0.00 42 1014.9
20260507214343 14 249 12.9 20.9 0.00 0.00 0.00 40 1014.9
20260507213838 14 267 12.9 12.9 0.00 0.00 0.00 39 1014.7
20260507213335 14 306 6.4 11.3 0.00 0.00 0.00 42 1014.6
20260507212832 14 291 11.3 16.1 0.00 0.00 0.00 40 1014.8
20260507212327 13 250 6.4 16.1 0.00 0.00 0.00 42 1014.7
20260507211824 13 236 11.3 17.7 0.00 0.00 0.00 41 1014.7
20260507211321 12 261 9.7 14.5 0.00 0.00 0.00 44 1014.8
20260507210818 13 330 8.0 16.1 0.00 0.00 0.00 41 1014.8
20260507210315 13 240 8.0 16.1 0.00 0.00 0.00 43 1014.8
20260507205811 13 257 6.4 16.1 0.00 0.00 0.00 43 1014.9
20260507205309 14 337 6.4 22.5 0.00 0.00 0.00 42 1015.0
20260507204804 14 262 14.5 27.4 0.00 0.00 0.00 44 1014.8
20260507204302 14 263 14.5 20.9 0.00 0.00 0.00 43 1014.9
20260507203800 13 271 6.4 17.7 0.00 0.00 0.00 46 1015.1
20260507203258 13 273 8.0 11.3 0.00 0.00 0.00 45 1015.1
20260507202753 13 276 8.0 11.3 0.00 0.00 0.00 46 1015.1
20260507202249 12 245 6.4 12.9 0.00 0.00 0.00 47 1015.1
20260507201744 13 231 6.4 14.5 0.00 0.00 0.00 45 1015.4
20260507201241 13 267 12.9 16.1 0.00 0.00 0.00 44 1015.2
20260507200737 13 27 11.3 22.5 0.00 0.00 0.00 43 1015.1
20260507200233 13 253 14.5 22.5 0.00 0.00 0.00 44 1015.1
20260507195730 13 265 4.8 9.7 0.00 0.00 0.00 47 1015.4
20260507195228 12 287 8.0 16.1 0.00 0.00 0.00 44 1015.4
20260507194724 13 334 8.0 17.7 0.00 0.00 0.00 46 1015.2
20260507194221 13 257 9.7 20.9 0.00 0.00 0.00 45 1015.5
20260507193718 13 242 19.3 25.7 0.00 0.00 0.00 44 1015.4
20260507193214 13 243 16.1 20.9 0.00 0.00 0.00 47 1015.6
20260507192710 13 256 17.7 25.7 0.00 0.00 0.00 43 1015.5
20260507192207 13 219 8.0 22.5 0.00 0.00 0.00 45 1015.2
20260507191703 13 284 4.8 9.7 0.00 0.00 0.00 44 1015.4
20260507191201 13 259 8.0 14.5 0.00 0.00 0.00 43 1015.4
20260507190657 12 249 8.0 16.1 0.00 0.00 0.00 44 1015.5
20260507190155 12 266 9.7 14.5 0.00 0.00 0.00 50 1015.7
20260507185653 13 249 12.9 17.7 0.00 0.00 0.00 47 1015.6